Vertical_Velocity
3 -1 4 -1 1 -0 0 0 -0 -4 1 -1 -2 -2 -1 -4 -4 -4 -3 -1 -2 -0 -1 -1 -0 -3 -0 -2 -3 -6 -1 -0 -1 2 -2 -2 -2 -5 -6 -4 -8 -3 -5 -0 3 7 -4
2 2 1 1 1 3 -1 -5 2 -2 -0 -2 1 -4 2 1 -3 -4 -5 -2 -1 -3 -3 -1 -1 -0 -4 -4 -8 -1 0 0 -3 1 2 1 0 2 -2 -2 -2 -2 3 -5 -1 19 -10
1 -1 -1 1 2 2 -3 -3 -6 -1 -6 -2 -0 -5 1 -3 -5 1 -5 -3 -2 -1 -2 -3 -3 -2 -4 1 -7 -6 3 0 -2 -2 -1 -4 1 -1 -1 -2 -2 -4 -5 -1 -2 2 -1
-3 -1 0 0 -2 2 -2 3 1 4 -2 -6 -6 -1 1 -2 -7 -2 -5 1 -4 -3 -2 -4 0 -5 -20 11 -2 -1 -5 -3 -1 2 -1 2 0 0 1 -4 -1 -2 0 1 -7 2 2
-2 -2 -5 3 1 -0 1 -0 3 -1 -1 -1 2 -2 -1 -3 -4 -2 -5 -1 0 -4 -3 -4 -0 -5 -16 -5 1 -3 -2 -0 -2 -7 1 1 -2 -2 3 -4 -7 4 -14 6 10 -1 7
0 2 2 -2 -2 -2 -1 -1 3 2 0 1 1 -4 -3 3 -6 -6 -1 -3 1 -6 -0 -1 -3 -0 -4 -0 -1 -4 3 -1 1 1 -6 0 -2 -2 -3 2 -11 -6 -0 3 20 -11 11
-3 -3 -4 -2 -3 -6 -3 -0 1 2 -0 -3 2 -0 2 -5 -7 0 2 -7 -0 -4 -2 -0 -1 0 -1 0 -5 -8 8 -3 1 2 -7 5 1 -11 -2 3 5 5 0 1 7 -0 3
-3 -3 -2 -3 -0 4 1 -1 1 -1 -3 1 1 -6 1 -2 1 1 -4 0 -1 -11 -23 1 -0 -13 -7 5 -7 -1 -1 3 3 -5 5 -2 -4 -11 -2 6 2 4 1 -8 16 6 4
1 1 -4 -2 -0 -2 1 1 3 -1 0 -0 3 0 -3 -3 -3 -2 -4 1 -2 -2 -9 -14 -6 -10 9 10 -4 -18 4 7 -9 2 0 0 -14 8 7 1 4 2 -4 -8 5 25 3
-1 -0 -1 1 -2 -2 -2 -1 -2 -3 -1 3 -0 2 3 -4 -2 4 -3 -3 3 -3 -12 -39 -9 -29 -12 9 -7 -1 1 3 -1 -8 -1 6 -1 -7 3 -5 4 3 -1 1 -3 22 -11
-3 -4 -3 -3 -1 -1 -3 -4 1 1 -2 2 4 -1 -1 0 0 3 11 -3 -6 4 -0 3 -1 9 5 -13 -7 -4 6 19 3 -7 10 -30 3 -4 12 -1 -6 -21 5 3 4 8 9
-4 -6 -6 -6 -5 -3 -4 -4 -4 -1 0 3 1 1 2 -5 -10 17 10 5 -4 2 -19 -12 2 -4 2 -1 -11 -10 1 10 12 7 5 3 3 12 -2 5 -14 -5 20 -0 3 4 3
-1 -2 -3 -4 -3 -5 -7 -5 -3 1 3 2 -2 6 3 -3 1 9 18 7 3 -0 7 -26 -3 -4 1 -8 -2 3 -3 6 1 13 3 -2 -7 -8 15 20 -2 5 15 2 -3 5 -11
-4 -3 -4 -3 -3 -8 -13 -14 -8 -3 -0 5 11 3 3 -8 18 -2 22 21 2 -5 -14 3 20 3 -0 -5 -10 -3 -4 3 -6 11 1 3 -4 -13 -13 4 -13 -3 3 -4 -5 -1 -4
-6 -7 -5 -6 -14 -11 -9 -9 -6 -4 -1 3 10 2 20 -16 13 23 25 21 -42 -4 -6 -7 12 7 -2 10 22 7 -1 -4 -5 -9 -1 -3 -17 2 9 -2 -4 -34 21 -29 7 17 3
-4 -4 -4 -7 -4 -3 -4 -9 -8 -6 -2 9 -2 11 1 8 24 23 37 -12 -19 -4 -4 5 1 4 -5 -9 5 8 -4 -3 -8 -3 11 -25 8 -9 -3 52 25 -23 4 22 2 -0 0
3 -2 -1 -1 -2 -2 -2 -1 -3 -8 0 15 -4 24 -26 -17 52 46 -11 -48 -7 14 2 -14 1 -3 -9 -8 0 -4 -7 -10 -2 17 6 -7 21 -18 19 10 -13 -0 -2 11 0 12 -5
-6 0 1 1 1 1 1 2 -4 1 5 8 1 15 -1 11 57 22 -10 -80 14 5 8 -6 -8 3 -9 -2 5 6 -4 11 7 -11 13 19 12 -4 -8 5 27 2 -2 3 13 -7 3
1 0 -4 -3 -3 1 -2 -8 -1 1 8 4 29 -16 24 36 -6 9 -17 -16 13 0 8 -3 -9 -3 -4 -8 12 1 -4 10 -1 0 2 9 3 -2 -6 1 2 1 -4 9 12 3 -29
-3 -0 -6 -5 -4 -6 -10 -6 -2 5 12 27 30 4 12 -33 37 24 -8 -14 -2 14 1 -0 1 8 5 3 4 -3 2 -4 -7 -6 -1 7 -4 -7 -22 -10 -6 -1 16 19 14 5 1
-0 -3 -2 -1 -2 -5 -5 -2 0 5 8 40 20 5 -4 5 21 13 8 24 -0 -12 -6 5 -4 -16 -4 10 -0 -5 -2 2 -4 4 0 2 2 1 -8 -10 -7 -5 4 -4 16 -9 -2
-2 -1 -3 -6 -4 -2 1 -0 2 15 10 28 20 26 19 -12 62 16 -4 -25 -22 12 -8 -19 -5 -1 7 1 0 -12 -23 2 -5 -4 2 1 4 -0 1 -2 -8 -14 -3 11 11 3 5
-1 -3 -2 -1 -4 1 1 5 -4 3 24 25 -18 -22 27 25 -8 32 -38 -39 -27 41 -1 -7 -13 11 -2 -12 10 14 -4 16 -10 -4 1 2 1 3 1 1 8 6 -18 -7 -6 -3 23
-3 -2 0 -2 -0 -1 3 3 9 1 -10 4 14 54 10 -15 14 -5 -3 12 -8 -30 -7 -9 2 7 -8 35 18 16 5 1 -0 -7 3 -2 -1 5 -5 8 1 -22 -1 9 5 -11 7
1 -1 -0 -3 -1 4 2 3 -6 16 22 6 15 50 68 10 -9 28 14 -2 19 13 -26 11 3 -11 -3 -6 12 -4 20 4 -3 8 8 10 1 4 -5 -4 0 1 1 -12 -7 -4 4
-1 -1 -0 -1 1 7 -3 9 -4 -11 -3 0 -0 -9 18 21 -16 5 26 5 25 0 14 -2 4 29 10 29 -11 -3 -6 0 -10 8 6 8 4 -2 5 -0 -4 -12 1 3 -5 -14 7
1 -1 -1 0 5 1 9 10 15 8 -17 -14 -1 23 9 29 -8 14 -1 -24 4 6 7 3 6 20 3 -2 -9 -0 1 -6 -10 -8 -5 -1 3 -4 1 -3 -6 2 1 3 5 -16 -5
3 2 -2 -3 4 -4 -1 -4 0 1 1 -15 17 26 12 44 7 -6 -13 -17 19 18 -17 -15 40 22 21 13 1 -9 1 -2 -2 -2 -17 -10 -6 -6 11 1 -11 12 2 -3 -1 -4 -1
2 6 -0 -7 3 8 2 8 5 10 -2 -30 -25 -5 4 51 14 12 -3 26 11 14 0 -10 -5 -5 10 7 -5 11 -1 3 3 -2 4 -1 -26 -24 -12 -13 -4 5 11 5 -5 -4 -3
Height
3149 3153 3156 3159 3162 3164 3167 3170 3172 3175 3177 3179 3181 3182 3184 3186 3187 3187 3190 3193 3193 3194 3194 3195 3195 3195 3197 3199 3199 3198 3200 3202 3202 3203 3203 3203 3203 3202 3202 3201 3201 3201 3200 3200 3202 3201 3199
3142 3146 3149 3153 3156 3159 3162 3165 3168 3170 3173 3175 3177 3178 3180 3181 3183 3184 3186 3188 3190 3191 3191 3191 3192 3192 3193 3196 3195 3195 3197 3199 3199 3200 3201 3200 3201 3201 3199 3199 3198 3197 3196 3196 3197 3198 3196
3136 3139 3142 3146 3149 3153 3156 3159 3162 3165 3167 3170 3172 3174 3176 3177 3179 3180 3181 3184 3186 3187 3188 3187 3188 3187 3188 3193 3193 3190 3194 3196 3196 3197 3198 3197 3198 3198 3197 3197 3195 3194 3192 3192 3193 3196 3193
3127 3131 3135 3138 3142 3146 3149 3152 3155 3158 3162 3164 3167 3169 3171 3172 3175 3176 3177 3178 3181 3182 3184 3184 3184 3182 3180 3187 3188 3188 3190 3190 3192 3193 3194 3194 3195 3195 3194 3194 3192 3191 3190 3188 3190 3192 3190
3119 3122 3126 3130 3134 3137 3142 3146 3149 3152 3155 3158 3161 3163 3165 3168 3170 3170 3172 3174 3176 3177 3179 3179 3181 3177 3180 3180 3183 3184 3184 3186 3188 3187 3189 3191 3190 3191 3191 3190 3190 3189 3186 3185 3187 3187 3189
3110 3114 3117 3120 3124 3129 3133 3137 3141 3146 3148 3151 3155 3157 3160 3162 3164 3165 3166 3168 3172 3171 3173 3173 3175 3176 3178 3179 3177 3179 3181 3182 3184 3184 3186 3187 3186 3186 3187 3188 3187 3186 3187 3182 3183 3185 3183
3101 3104 3108 3112 3116 3120 3124 3129 3133 3138 3142 3145 3148 3151 3154 3157 3160 3160 3162 3163 3170 3169 3166 3168 3170 3168 3170 3172 3170 3174 3178 3178 3180 3180 3180 3183 3182 3180 3183 3184 3185 3183 3183 3183 3180 3182 3181
3090 3094 3098 3102 3107 3111 3114 3118 3124 3129 3134 3138 3142 3145 3149 3152 3155 3155 3157 3160 3165 3162 3153 3158 3159 3158 3161 3168 3164 3169 3174 3174 3174 3174 3177 3179 3175 3177 3178 3179 3181 3181 3180 3181 3182 3181 3181
3077 3082 3087 3092 3097 3101 3105 3109 3113 3118 3125 3129 3135 3138 3142 3146 3147 3152 3154 3156 3160 3158 3154 3144 3150 3148 3153 3159 3156 3161 3169 3168 3168 3169 3171 3171 3172 3175 3175 3175 3177 3177 3178 3178 3178 3178 3178
3063 3068 3074 3079 3085 3090 3094 3099 3104 3108 3112 3120 3126 3132 3136 3139 3143 3147 3147 3155 3156 3157 3152 3138 3140 3135 3139 3147 3144 3153 3157 3163 3161 3162 3167 3165 3168 3169 3171 3172 3173 3173 3175 3176 3175 3175 3174
3052 3054 3058 3064 3071 3077 3083 3088 3094 3099 3103 3108 3116 3122 3128 3132 3136 3139 3148 3148 3153 3158 3156 3143 3136 3137 3134 3138 3142 3148 3152 3153 3151 3156 3163 3157 3161 3164 3164 3166 3169 3169 3172 3171 3169 3169 3169
3039 3043 3048 3052 3056 3061 3067 3074 3081 3088 3094 3099 3105 3112 3120 3122 3126 3139 3140 3144 3151 3159 3145 3136 3134 3132 3134 3134 3137 3143 3147 3148 3150 3151 3153 3153 3158 3158 3160 3162 3164 3167 3168 3168 3166 3165 3163
3031 3034 3038 3042 3046 3050 3054 3058 3065 3071 3079 3087 3096 3103 3109 3114 3121 3135 3136 3140 3144 3142 3136 3132 3130 3129 3130 3131 3134 3138 3141 3143 3144 3146 3146 3148 3148 3152 3156 3157 3159 3161 3164 3164 3165 3163 3159
3022 3026 3030 3033 3037 3040 3044 3049 3052 3056 3062 3072 3081 3092 3096 3103 3117 3123 3129 3128 3127 3120 3124 3128 3127 3127 3127 3128 3130 3132 3135 3136 3139 3142 3143 3143 3142 3147 3148 3150 3154 3155 3157 3158 3162 3160 3157
3014 3016 3020 3022 3027 3032 3035 3038 3043 3046 3049 3057 3067 3075 3078 3092 3105 3110 3112 3106 3103 3107 3115 3122 3123 3120 3121 3122 3127 3128 3128 3129 3132 3135 3136 3138 3136 3141 3142 3144 3149 3150 3149 3155 3155 3153 3153
3005 3008 3011 3013 3016 3019 3022 3027 3032 3036 3040 3046 3050 3059 3063 3080 3091 3095 3091 3087 3090 3097 3108 3113 3113 3114 3116 3117 3120 3121 3121 3122 3126 3128 3129 3131 3131 3134 3135 3138 3139 3142 3148 3149 3150 3153 3151
2995 2999 3001 3004 3006 3009 3012 3016 3019 3024 3029 3034 3037 3039 3051 3065 3074 3069 3060 3067 3076 3089 3095 3103 3103 3105 3108 3112 3114 3114 3114 3117 3120 3122 3124 3127 3129 3130 3130 3127 3129 3136 3141 3141 3144 3147 3145
2987 2989 2991 2995 2997 3000 3002 3005 3009 3013 3018 3021 3024 3022 3040 3051 3048 3039 3047 3052 3067 3076 3083 3090 3095 3097 3101 3106 3106 3106 3106 3110 3113 3116 3116 3121 3121 3124 3125 3125 3131 3133 3135 3137 3138 3141 3140
2977 2979 2982 2985 2988 2991 2991 2996 2998 3004 3007 3013 3009 3012 3026 3028 3025 3026 3035 3046 3056 3065 3068 3076 3083 3087 3095 3099 3101 3097 3101 3102 3108 3112 3112 3114 3116 3119 3121 3126 3126 3127 3129 3131 3133 3137 3140
2968 2970 2973 2976 2979 2980 2982 2986 2989 2993 2998 3001 3000 3008 3008 3010 3014 3014 3025 3032 3046 3053 3062 3068 3076 3084 3088 3090 3091 3093 3094 3096 3102 3108 3110 3112 3113 3115 3116 3121 3120 3122 3124 3128 3127 3131 3132
2959 2961 2965 2968 2970 2972 2973 2975 2979 2982 2987 2988 2987 2983 2993 2990 2997 2996 3010 3021 3032 3043 3047 3063 3068 3069 3075 3081 3082 3083 3087 3093 3097 3102 3105 3110 3110 3113 3113 3118 3118 3118 3121 3125 3121 3125 3129
2951 2954 2956 2959 2962 2963 2964 2965 2969 2972 2977 2974 2976 2981 2983 2981 2985 2991 3003 3009 3020 3029 3040 3048 3051 3061 3069 3071 3073 3077 3080 3086 3091 3096 3100 3104 3107 3108 3110 3113 3115 3117 3115 3119 3122 3123 3126
2943 2946 2948 2951 2952 2953 2956 2957 2960 2961 2963 2962 2969 2974 2975 2970 2980 2983 2990 2999 3010 3024 3034 3043 3050 3060 3061 3063 3071 3075 3079 3083 3086 3091 3096 3098 3101 3103 3106 3110 3113 3115 3112 3115 3116 3118 3122
2936 2938 2941 2942 2944 2945 2947 2948 2951 2954 2955 2956 2962 2962 2970 2962 2969 2971 2983 2992 3004 3009 3022 3037 3050 3052 3056 3063 3068 3071 3075 3078 3083 3088 3091 3093 3097 3100 3102 3106 3110 3102 3107 3110 3112 3114 3119
2929 2931 2933 2934 2936 2938 2938 2939 2939 2941 2945 2947 2951 2951 2951 2955 2963 2971 2978 2986 2997 3006 3019 3034 3039 3045 3050 3055 3060 3066 3070 3074 3077 3082 3085 3088 3091 3094 3097 3100 3100 3099 3100 3103 3106 3109 3111
2921 2923 2925 2926 2929 2930 2931 2932 2934 2935 2936 2936 2941 2948 2948 2951 2949 2965 2973 2979 2984 2992 3013 3019 3027 3035 3041 3043 3046 3054 3057 3060 3071 3075 3079 3083 3087 3090 3091 3094 3094 3093 3096 3099 3102 3104 3105
2914 2916 2917 2919 2921 2921 2923 2925 2927 2931 2932 2932 2933 2941 2945 2947 2953 2962 2963 2968 2977 2987 2999 3005 3016 3023 3029 3032 3041 3047 3050 3054 3061 3067 3073 3076 3081 3083 3085 3088 3088 3088 3090 3091 3097 3102 3099
2908 2909 2910 2912 2914 2915 2916 2916 2919 2922 2924 2924 2922 2925 2932 2939 2943 2951 2960 2965 2971 2982 2989 2994 3004 3011 3018 3022 3033 3037 3040 3045 3052 3056 3061 3068 3073 3076 3081 3084 3083 3083 3085 3088 3090 3092 3095
2901 2903 2904 2905 2907 2909 2910 2911 2912 2916 2921 2923 2925 2925 2929 2935 2941 2946 2953 2957 2965 2977 2986 2992 2998 3002 3008 3013 3019 3031 3033 3040 3042 3050 3057 3060 3060 3066 3071 3071 3074 3077 3079 3082 3084 3088 3091